DL1MX-13 Weather Reports


Display with metric or nautical units.
time (UTC)temp
F
wind
direction
speed
MPH
gust
MPH
rain 1hr
in
rain 24hr
in
rain mn
in
humidity
%
barometer
mb
20260506095801 51 230 4.0 0.0 0.00 0.00 0.00 90 1005.8
20260506095702 51 230 4.0 0.0 0.00 0.00 0.00 90 1005.8
20260506095601 51 230 4.0 0.0 0.00 0.00 0.00 90 1005.8
20260506095502 51 242 4.0 0.0 0.00 0.00 0.00 90 1005.7
20260506095402 51 242 4.0 0.0 0.00 0.00 0.00 90 1005.7
20260506095305 51 235 4.0 0.0 0.00 0.00 0.00 90 1005.7
20260506095202 51 235 4.0 0.0 0.00 0.00 0.00 90 1005.7
20260506095101 51 235 4.0 0.0 0.00 0.00 0.00 90 1005.7
20260506095002 51 222 6.0 0.0 0.00 0.00 0.00 90 1005.7
20260506094901 51 222 6.0 0.0 0.00 0.00 0.00 90 1005.7
20260506094802 51 250 5.0 0.0 0.00 0.00 0.00 90 1005.7
20260506094701 51 250 5.0 0.0 0.00 0.00 0.00 90 1005.7
20260506094602 51 250 5.0 0.0 0.00 0.00 0.00 90 1005.7
20260506094502 51 250 5.0 0.0 0.00 0.00 0.00 90 1005.7
20260506094401 51 250 5.0 0.0 0.00 0.00 0.00 90 1005.7
20260506094302 51 230 4.0 0.0 0.00 0.00 0.00 90 1005.7
20260506094201 51 230 4.0 0.0 0.00 0.00 0.00 90 1005.6
20260506094102 51 230 4.0 0.0 0.00 0.00 0.00 90 1005.6
20260506094001 51 217 4.0 0.0 0.00 0.00 0.00 91 1005.6
20260506093902 51 217 4.0 0.0 0.00 0.00 0.00 91 1005.5
20260506093802 51 217 4.0 0.0 0.00 0.00 0.00 91 1005.6
20260506093702 51 217 4.0 0.0 0.00 0.00 0.00 91 1005.5
20260506093602 51 217 4.0 0.0 0.00 0.00 0.00 91 1005.5
20260506093502 51 230 4.0 0.0 0.00 0.00 0.00 91 1005.5
20260506093402 51 230 4.0 0.0 0.00 0.00 0.00 91 1005.5
20260506093301 51 230 4.0 0.0 0.00 0.00 0.00 91 1005.5
20260506093202 51 230 4.0 0.0 0.00 0.00 0.00 91 1005.5
20260506093101 51 230 4.0 0.0 0.00 0.00 0.00 91 1005.5
20260506093002 51 235 3.0 0.0 0.00 0.00 0.00 91 1005.6
20260506092901 51 235 3.0 0.0 0.00 0.00 0.00 91 1005.6
20260506092802 51 235 3.0 0.0 0.00 0.00 0.00 91 1005.6
20260506092702 51 240 0.0 0.0 0.00 0.00 0.00 91 1005.7
20260506092601 51 240 0.0 0.0 0.00 0.00 0.00 91 1005.7
20260506092502 51 247 0.0 0.0 0.00 0.00 0.00 91 1005.7
20260506092401 51 247 0.0 0.0 0.00 0.00 0.00 91 1005.7
20260506092302 51 247 0.0 0.0 0.00 0.00 0.00 91 1005.8
20260506092201 51 247 0.0 0.0 0.00 0.00 0.00 91 1005.7
20260506092102 51 247 0.0 0.0 0.00 0.00 0.00 91 1005.7
20260506092002 51 230 3.0 0.0 0.00 0.00 0.00 91 1005.7
20260506091901 51 230 3.0 0.0 0.00 0.00 0.00 91 1005.7
20260506091802 51 230 3.0 0.0 0.00 0.00 0.00 91 1005.7
20260506091702 51 212 0.0 0.0 0.00 0.00 0.00 91 1005.7
20260506091602 51 212 0.0 0.0 0.00 0.00 0.00 91 1005.7
20260506091501 50 220 0.0 0.0 0.00 0.00 0.00 91 1005.7
20260506091402 50 220 0.0 0.0 0.00 0.00 0.00 91 1005.6
20260506091302 50 220 0.0 0.0 0.00 0.00 0.00 91 1005.6
20260506091201 50 220 0.0 0.0 0.00 0.00 0.00 91 1005.6
20260506091102 50 220 0.0 0.0 0.00 0.00 0.00 91 1005.6
20260506091001 50 220 0.0 0.0 0.00 0.00 0.00 91 1005.6
20260506090902 50 225 4.0 0.0 0.00 0.00 0.00 91 1005.6
20260506090801 50 225 4.0 0.0 0.00 0.00 0.00 91 1005.6
20260506090702 50 220 4.0 0.0 0.00 0.00 0.00 91 1005.6
20260506090601 50 220 4.0 0.0 0.00 0.00 0.00 91 1005.6
20260506090502 50 220 4.0 0.0 0.00 0.00 0.00 91 1005.6
20260506090402 50 227 4.0 0.0 0.00 0.00 0.00 91 1005.6
20260506090301 50 227 4.0 0.0 0.00 0.00 0.00 91 1005.6
20260506090202 50 227 4.0 0.0 0.00 0.00 0.00 91 1005.6
20260506090002 50 220 4.0 0.0 0.00 0.00 0.00 91 1005.6
20260506085901 50 220 4.0 0.0 0.00 0.00 0.00 91 1005.5
20260506085802 50 217 0.0 0.0 0.00 0.00 0.00 91 1005.6
20260506085702 50 217 0.0 0.0 0.00 0.00 0.00 91 1005.5
20260506085602 50 235 5.0 0.0 0.00 0.00 0.00 91 1005.5
20260506085502 50 235 5.0 0.0 0.00 0.00 0.00 91 1005.6
20260506085401 50 222 3.0 0.0 0.00 0.00 0.00 91 1005.6
20260506085302 50 222 3.0 0.0 0.00 0.00 0.00 91 1005.6
20260506085201 50 222 3.0 0.0 0.00 0.00 0.00 91 1005.6
20260506085102 50 225 4.0 0.0 0.00 0.00 0.00 91 1005.6
20260506085001 50 225 4.0 0.0 0.00 0.00 0.00 91 1005.5
20260506084902 50 207 4.0 0.0 0.00 0.00 0.00 91 1005.5
20260506084801 50 207 4.0 0.0 0.00 0.00 0.00 91 1005.5
20260506084702 50 207 4.0 0.0 0.00 0.00 0.00 91 1005.5
20260506084602 50 227 0.0 0.0 0.00 0.00 0.00 91 1005.5
20260506084502 50 227 0.0 0.0 0.00 0.00 0.00 91 1005.5
20260506084402 50 227 0.0 0.0 0.00 0.00 0.00 91 1005.5
20260506084301 50 227 0.0 0.0 0.00 0.00 0.00 91 1005.4
20260506084202 50 217 4.0 0.0 0.00 0.00 0.00 91 1005.4
20260506084101 50 217 4.0 0.0 0.00 0.00 0.00 91 1005.4
20260506084002 50 217 4.0 0.0 0.00 0.00 0.00 91 1005.5
20260506083901 50 222 0.0 0.0 0.00 0.00 0.00 91 1005.4
20260506083802 50 222 0.0 0.0 0.00 0.00 0.00 91 1005.4
20260506083702 50 222 0.0 0.0 0.00 0.00 0.00 91 1005.4
20260506083601 50 222 0.0 0.0 0.00 0.00 0.00 91 1005.5
20260506083502 50 222 0.0 0.0 0.00 0.00 0.00 91 1005.5
20260506083401 50 222 4.0 0.0 0.00 0.00 0.00 91 1005.5
20260506083302 50 222 4.0 0.0 0.00 0.00 0.00 91 1005.4
20260506083201 50 210 6.0 0.0 0.00 0.00 0.00 91 1005.4
20260506083102 50 205 3.0 0.0 0.00 0.00 0.00 91 1005.4
20260506083002 50 205 3.0 0.0 0.00 0.00 0.00 91 1005.4
20260506082901 50 217 4.0 0.0 0.00 0.00 0.00 91 1005.4
20260506082802 50 217 4.0 0.0 0.00 0.00 0.00 91 1005.4
20260506082701 50 217 4.0 0.0 0.00 0.00 0.00 91 1005.4
20260506082602 50 210 4.0 0.0 0.00 0.00 0.00 91 1005.4
20260506082501 50 210 4.0 0.0 0.00 0.00 0.00 91 1005.3
20260506082402 50 210 3.0 0.0 0.00 0.00 0.00 91 1005.3
20260506082304 50 210 3.0 0.0 0.00 0.00 0.00 91 1005.3
20260506082202 50 220 0.0 0.0 0.00 0.00 0.00 91 1005.4
20260506082102 50 220 0.0 0.0 0.00 0.00 0.00 91 1005.3
20260506082002 50 220 0.0 0.0 0.00 0.00 0.00 91 1005.3
20260506081902 50 215 0.0 0.0 0.00 0.00 0.00 91 1005.3
20260506081801 50 215 0.0 0.0 0.00 0.00 0.00 91 1005.3
20260506081702 50 215 0.0 0.0 0.00 0.00 0.00 91 1005.3
20260506081601 50 205 3.0 0.0 0.00 0.00 0.00 91 1005.3
20260506081502 50 205 3.0 0.0 0.00 0.00 0.00 91 1005.3
20260506081401 50 205 3.0 0.0 0.00 0.00 0.00 91 1005.3
20260506081302 50 207 4.0 0.0 0.00 0.00 0.00 91 1005.3
20260506081202 50 207 4.0 0.0 0.00 0.00 0.00 91 1005.3
20260506081102 50 190 6.0 0.0 0.00 0.00 0.00 91 1005.1
20260506081002 50 190 6.0 0.0 0.00 0.00 0.00 91 1005.1
20260506080901 50 190 4.0 0.0 0.00 0.00 0.00 91 1005.1
20260506080802 50 190 4.0 0.0 0.00 0.00 0.00 91 1005.3
20260506080701 50 190 4.0 0.0 0.00 0.00 0.00 91 1005.3
20260506080603 50 190 4.0 0.0 0.00 0.00 0.00 91 1005.3
20260506080502 50 190 4.0 0.0 0.00 0.00 0.00 91 1005.3
20260506080402 50 190 4.0 0.0 0.00 0.00 0.00 91 1005.1
20260506080302 50 200 3.0 0.0 0.00 0.00 0.00 91 1005.1
20260506080202 50 212 0.0 0.0 0.00 0.00 0.00 91 1005.1
20260506073501 49 202 0.0 0.0 0.00 0.00 0.00 92 1005.0
20260506073402 49 202 0.0 0.0 0.00 0.00 0.00 92 1005.0
20260506073302 49 202 0.0 0.0 0.00 0.00 0.00 92 1005.0
20260506073202 49 202 0.0 0.0 0.00 0.00 0.00 92 1005.0
20260506073102 49 202 0.0 0.0 0.00 0.00 0.00 92 1005.1
20260506073002 49 207 0.0 0.0 0.00 0.00 0.00 92 1005.1
20260506072901 49 207 0.0 0.0 0.00 0.00 0.00 92 1005.0
20260506072802 49 220 0.0 0.0 0.00 0.00 0.00 92 1005.1
20260506072701 49 220 0.0 0.0 0.00 0.00 0.00 92 1005.1
20260506072602 49 225 0.0 0.0 0.00 0.00 0.00 92 1005.0
20260506072501 49 225 0.0 0.0 0.00 0.00 0.00 92 1005.1
20260506072402 49 225 0.0 0.0 0.00 0.00 0.00 92 1005.0
20260506072305 49 225 0.0 0.0 0.00 0.00 0.00 92 1005.1
20260506072201 49 225 0.0 0.0 0.00 0.00 0.00 92 1005.1
20260506072003 49 215 0.0 0.0 0.00 0.00 0.00 92 1005.1
20260506071903 54 227 6.0 0.0 0.00 0.00 0.00 88 1008.2
20260505164301 54 227 6.0 0.0 0.00 0.00 0.00 88 1008.2
20260505164202 54 220 4.0 0.0 0.00 0.00 0.00 88 1008.2
20260505164101 54 220 4.0 0.0 0.00 0.00 0.00 88 1008.2
20260505164002 54 222 6.0 0.0 0.00 0.00 0.00 87 1008.2
20260505163901 54 222 6.0 0.0 0.00 0.00 0.00 87 1008.2
20260505163802 54 212 6.0 0.0 0.00 0.00 0.00 87 1008.3
20260505163702 54 212 6.0 0.0 0.00 0.00 0.00 87 1008.3
20260505163601 54 212 6.0 0.0 0.00 0.00 0.00 87 1008.3
20260505163502 54 212 6.0 0.0 0.00 0.00 0.00 87 1008.3
20260505163402 54 212 6.0 0.0 0.00 0.00 0.00 87 1008.3
20260505163302 54 212 6.0 0.0 0.00 0.00 0.00 87 1008.3
20260505163201 54 212 6.0 0.0 0.00 0.00 0.00 87 1008.3
20260505163102 54 217 6.0 0.0 0.00 0.00 0.00 88 1008.3
20260505163001 54 217 6.0 0.0 0.00 0.00 0.00 88 1008.3
20260505162902 54 217 6.0 0.0 0.00 0.00 0.00 88 1008.4
20260505162802 54 212 5.0 0.0 0.00 0.00 0.00 88 1008.4
20260505162702 54 212 5.0 0.0 0.00 0.00 0.00 88 1008.4
20260505162602 54 212 5.0 0.0 0.00 0.00 0.00 88 1008.4
20260505162502 54 220 6.0 0.0 0.00 0.00 0.00 87 1008.4
20260505162402 54 220 6.0 0.0 0.00 0.00 0.00 87 1008.4
20260505162305 54 220 6.0 0.0 0.00 0.00 0.00 87 1008.4
20260505162202 55 222 8.0 0.0 0.00 0.00 0.00 87 1008.4
20260505162102 55 222 8.0 0.0 0.00 0.00 0.00 87 1008.4
20260505162002 55 222 8.0 0.0 0.00 0.00 0.00 87 1008.5
20260505161902 55 232 6.0 0.0 0.00 0.00 0.00 87 1008.4
20260505161802 55 232 6.0 0.0 0.00 0.00 0.00 87 1008.4
20260505161702 55 232 7.0 0.0 0.00 0.00 0.00 87 1008.4
20260505161602 55 232 7.0 0.0 0.00 0.00 0.00 87 1008.4
20260505161502 55 232 7.0 0.0 0.00 0.00 0.00 87 1008.5
20260505161402 55 232 7.0 0.0 0.00 0.00 0.00 87 1008.4
20260505161301 55 232 7.0 0.0 0.00 0.00 0.00 87 1008.4
20260505161202 55 215 5.0 0.0 0.00 0.00 0.00 87 1008.5
20260505161101 55 215 5.0 0.0 0.00 0.00 0.00 87 1008.4
20260505161005 55 215 5.0 0.0 0.00 0.00 0.00 87 1008.4
20260505160901 55 212 5.0 0.0 0.00 0.00 0.00 87 1008.4
20260505160802 55 212 5.0 0.0 0.00 0.00 0.00 87 1008.4
20260505160701 55 215 4.0 0.0 0.00 0.00 0.00 87 1008.4
20260505160602 55 215 4.0 0.0 0.00 0.00 0.00 87 1008.4
20260505160502 55 215 4.0 0.0 0.00 0.00 0.00 87 1008.4
20260505160402 55 215 6.0 0.0 0.00 0.00 0.00 88 1008.3
20260505160302 55 215 6.0 0.0 0.00 0.00 0.00 88 1008.4
20260505160202 55 222 4.0 0.0 0.00 0.00 0.00 88 1008.4
20260505153302 55 215 6.0 0.0 0.00 0.00 0.00 89 1008.5
20260505153202 55 217 8.0 0.0 0.00 0.00 0.00 89 1008.5
20260505153102 55 217 8.0 0.0 0.00 0.00 0.00 89 1008.6
20260505153002 55 217 8.0 0.0 0.00 0.00 0.00 89 1008.6
20260505152902 55 207 6.0 0.0 0.00 0.00 0.00 89 1008.6
20260505152801 55 207 6.0 0.0 0.00 0.00 0.00 89 1008.5
20260505152702 55 207 6.0 0.0 0.00 0.00 0.00 89 1008.6
20260505152601 55 222 6.0 0.0 0.00 0.00 0.00 89 1008.6
20260505152502 55 222 6.0 0.0 0.00 0.00 0.00 89 1008.6
20260505152402 55 222 6.0 0.0 0.00 0.00 0.00 89 1008.6
20260505152305 55 225 5.0 0.0 0.00 0.00 0.00 89 1008.5
20260505152202 55 225 5.0 0.0 0.00 0.00 0.00 89 1008.6
20260505152101 55 225 4.0 0.0 0.00 0.00 0.00 89 1008.6
20260505152002 55 225 4.0 0.0 0.00 0.00 0.00 89 1008.6
20260505151901 55 225 4.0 0.0 0.00 0.00 0.00 89 1008.5
20260505151802 55 225 4.0 0.0 0.00 0.00 0.00 89 1008.5
20260505151702 55 225 4.0 0.0 0.00 0.00 0.00 89 1008.6
20260505151602 55 222 6.0 0.0 0.00 0.00 0.00 89 1008.6
20260505151502 55 220 13.0 0.0 0.00 0.00 0.00 89 1008.6
20260505151402 55 217 5.0 0.0 0.00 0.00 0.00 89 1008.6
20260505151302 55 222 6.0 0.0 0.00 0.00 0.00 89 1008.6
20260505151201 55 222 6.0 0.0 0.00 0.00 0.00 89 1008.6
20260505151102 55 222 6.0 0.0 0.00 0.00 0.00 89 1008.6
20260505151001 55 222 6.0 0.0 0.00 0.00 0.00 89 1008.6
20260505150902 55 225 7.0 0.0 0.00 0.00 0.00 89 1008.6
20260505150801 55 225 7.0 0.0 0.00 0.00 0.00 89 1008.6
20260505150702 55 225 7.0 0.0 0.00 0.00 0.00 89 1008.6
20260505150602 55 215 6.0 0.0 0.00 0.00 0.00 89 1008.7
20260505150502 55 215 6.0 0.0 0.00 0.00 0.00 89 1008.7
20260505150402 55 215 6.0 0.0 0.00 0.00 0.00 89 1008.8
20260505150301 55 230 3.0 0.0 0.00 0.00 0.00 88 1008.8
20260505150202 55 230 3.0 0.0 0.00 0.00 0.00 88 1008.7
20260505140601 55 220 3.0 0.0 0.00 0.00 0.00 86 1009.2
20260505140502 55 220 3.0 0.0 0.00 0.00 0.00 86 1009.2
20260505140401 55 220 3.0 0.0 0.00 0.00 0.00 86 1009.2
20260505140302 55 220 3.0 0.0 0.00 0.00 0.00 86 1009.2
20260505140201 55 220 3.0 0.0 0.00 0.00 0.00 86 1009.2
20260505130301 58 220 4.0 0.0 0.00 0.00 0.00 80 1009.5
20260505130202 58 220 4.0 0.0 0.00 0.00 0.00 80 1009.4
20260505125002 59 215 7.0 0.0 0.00 0.00 0.00 80 1009.5
20260505124901 59 205 4.0 0.0 0.00 0.00 0.00 80 1009.5
20260505124802 59 205 4.0 0.0 0.00 0.00 0.00 80 1009.5
20260505124701 59 205 4.0 0.0 0.00 0.00 0.00 80 1009.5
20260505124602 59 220 7.0 0.0 0.00 0.00 0.00 79 1009.5
20260505124501 59 220 7.0 0.0 0.00 0.00 0.00 79 1009.5
20260505124402 59 227 5.0 0.0 0.00 0.00 0.00 79 1009.5
20260505124302 59 227 5.0 0.0 0.00 0.00 0.00 79 1009.5
20260505124201 59 227 5.0 0.0 0.00 0.00 0.00 79 1009.5
20260505124102 59 165 4.0 0.0 0.00 0.00 0.00 79 1009.6
20260505124001 59 165 4.0 0.0 0.00 0.00 0.00 79 1009.6
20260505123902 60 152 5.0 0.0 0.00 0.00 0.00 78 1009.5
20260505123801 60 152 5.0 0.0 0.00 0.00 0.00 78 1009.6
20260505123702 60 152 5.0 0.0 0.00 0.00 0.00 78 1009.6
20260505123602 60 130 4.0 0.0 0.00 0.00 0.00 77 1009.6
20260505123501 60 130 4.0 0.0 0.00 0.00 0.00 77 1009.6
20260505123402 61 140 6.0 0.0 0.00 0.00 0.00 76 1009.6
20260505123301 61 140 6.0 0.0 0.00 0.00 0.00 76 1009.6
20260505123202 61 140 6.0 0.0 0.00 0.00 0.00 76 1009.6
20260505123101 61 122 6.0 0.0 0.00 0.00 0.00 72 1009.6
20260505123002 61 122 6.0 0.0 0.00 0.00 0.00 72 1009.5
20260505122902 61 122 6.0 0.0 0.00 0.00 0.00 72 1009.5
20260505122802 61 85 0.0 0.0 0.00 0.00 0.00 72 1009.5
20260505122702 61 85 0.0 0.0 0.00 0.00 0.00 72 1009.6
20260505122601 62 52 0.0 0.0 0.00 0.00 0.00 72 1009.6
20260505122502 62 52 0.0 0.0 0.00 0.00 0.00 72 1009.5
20260505122401 62 10 0.0 0.0 0.00 0.00 0.00 71 1009.6
20260505122305 62 10 0.0 0.0 0.00 0.00 0.00 71 1009.6
20260505122201 62 10 0.0 0.0 0.00 0.00 0.00 71 1009.6
20260505122102 62 145 0.0 0.0 0.00 0.00 0.00 72 1009.6
20260505122002 62 145 0.0 0.0 0.00 0.00 0.00 72 1009.6
20260505121901 62 145 0.0 0.0 0.00 0.00 0.00 72 1009.6
20260505121802 62 145 0.0 0.0 0.00 0.00 0.00 72 1009.6
20260505121701 62 145 0.0 0.0 0.00 0.00 0.00 72 1009.6
20260505121602 62 145 0.0 0.0 0.00 0.00 0.00 72 1009.6
20260505121501 62 195 0.0 0.0 0.00 0.00 0.00 71 1009.6
20260505121402 62 195 0.0 0.0 0.00 0.00 0.00 71 1009.6
20260505121301 62 212 0.0 0.0 0.00 0.00 0.00 71 1009.6
20260505121202 62 212 0.0 0.0 0.00 0.00 0.00 71 1009.6
20260505121102 62 75 0.0 0.0 0.00 0.00 0.00 69 1009.6
20260505121002 62 75 0.0 0.0 0.00 0.00 0.00 69 1009.6
20260505120901 62 75 0.0 0.0 0.00 0.00 0.00 69 1009.6
20260505120802 62 75 0.0 0.0 0.00 0.00 0.00 69 1009.6
20260505120702 62 75 0.0 0.0 0.00 0.00 0.00 69 1009.6
20260505120602 62 75 0.0 0.0 0.00 0.00 0.00 69 1009.6
20260505120502 62 217 0.0 0.0 0.00 0.00 0.00 70 1009.6
20260505120401 62 217 0.0 0.0 0.00 0.00 0.00 70 1009.6
20260505120302 62 225 0.0 0.0 0.00 0.00 0.00 70 1009.6
20260505120201 62 225 0.0 0.0 0.00 0.00 0.00 70 1009.6
20260505120001 62 265 3.0 0.0 0.00 0.00 0.00 70 1009.6
20260505115902 62 265 3.0 0.0 0.00 0.00 0.00 70 1009.6
20260505115802 62 20 0.0 0.0 0.00 0.00 0.00 70 1009.7
20260505115702 62 20 0.0 0.0 0.00 0.00 0.00 70 1009.6
20260505115602 62 20 0.0 0.0 0.00 0.00 0.00 70 1009.6
20260505115501 62 20 0.0 0.0 0.00 0.00 0.00 70 1009.7
20260505115402 62 20 0.0 0.0 0.00 0.00 0.00 70 1009.7
20260505115304 62 12 0.0 0.0 0.00 0.00 0.00 70 1009.6
20260505115202 62 12 0.0 0.0 0.00 0.00 0.00 70 1009.7
20260505115102 62 12 0.0 0.0 0.00 0.00 0.00 70 1009.6
20260505115002 63 330 4.0 0.0 0.00 0.00 0.00 70 1009.7
20260505114902 63 330 4.0 0.0 0.00 0.00 0.00 70 1009.7
20260505114801 63 310 2.0 0.0 0.00 0.00 0.00 69 1009.7
20260505114702 63 310 2.0 0.0 0.00 0.00 0.00 69 1009.7
20260505114601 63 310 2.0 0.0 0.00 0.00 0.00 69 1009.7
20260505114502 64 260 3.0 0.0 0.00 0.00 0.00 69 1009.7
20260505114401 64 260 3.0 0.0 0.00 0.00 0.00 69 1009.7
20260505114302 64 260 3.0 0.0 0.00 0.00 0.00 69 1009.7
20260505114202 63 225 3.0 0.0 0.00 0.00 0.00 69 1009.7
20260505114102 63 225 3.0 0.0 0.00 0.00 0.00 69 1009.8
20260505114002 63 90 0.0 0.0 0.00 0.00 0.00 68 1009.8
20260505113901 63 90 0.0 0.0 0.00 0.00 0.00 68 1009.7
20260505113802 63 90 0.0 0.0 0.00 0.00 0.00 68 1009.7
20260505113701 63 90 0.0 0.0 0.00 0.00 0.00 68 1009.8
20260505113602 63 90 0.0 0.0 0.00 0.00 0.00 68 1009.8
20260505113502 63 105 0.0 0.0 0.00 0.00 0.00 69 1009.8
20260505113402 63 105 0.0 0.0 0.00 0.00 0.00 69 1009.8
20260505113302 63 105 0.0 0.0 0.00 0.00 0.00 69 1009.8
20260505113201 63 115 0.0 0.0 0.00 0.00 0.00 72 1009.8
20260505113102 63 115 0.0 0.0 0.00 0.00 0.00 72 1009.8
20260505113002 63 115 0.0 0.0 0.00 0.00 0.00 72 1009.8
20260505112902 63 115 0.0 0.0 0.00 0.00 0.00 72 1009.8
20260505112801 63 115 0.0 0.0 0.00 0.00 0.00 72 1009.8
20260505112702 63 15 4.0 0.0 0.00 0.00 0.00 72 1009.9
20260505112602 63 15 4.0 0.0 0.00 0.00 0.00 72 1009.8
20260505112501 63 15 4.0 0.0 0.00 0.00 0.00 72 1009.8
20260505112402 63 15 4.0 0.0 0.00 0.00 0.00 72 1009.8
20260505112301 63 15 4.0 0.0 0.00 0.00 0.00 72 1009.8
20260505112202 63 255 0.0 0.0 0.00 0.00 0.00 73 1009.8
20260505112101 63 255 0.0 0.0 0.00 0.00 0.00 73 1009.9
20260505112002 63 255 0.0 0.0 0.00 0.00 0.00 73 1009.9
20260505111901 63 235 0.0 0.0 0.00 0.00 0.00 72 1009.9
20260505111801 63 235 0.0 0.0 0.00 0.00 0.00 72 1009.9
20260505111702 63 255 0.0 0.0 0.00 0.00 0.00 72 1009.9
20260505111601 63 255 0.0 0.0 0.00 0.00 0.00 72 1009.9
20260505111502 62 250 3.0 0.0 0.00 0.00 0.00 75 1009.9
20260505111401 62 250 3.0 0.0 0.00 0.00 0.00 75 1009.9
20260505111302 62 250 3.0 0.0 0.00 0.00 0.00 75 1010.0
20260505111202 62 230 3.0 0.0 0.00 0.00 0.00 75 1009.9
20260505111102 62 230 3.0 0.0 0.00 0.00 0.00 75 1010.0
20260505111002 62 230 3.0 0.0 0.00 0.00 0.00 75 1010.0
20260505110902 61 187 0.0 0.0 0.00 0.00 0.00 73 1010.0
20260505110802 61 187 0.0 0.0 0.00 0.00 0.00 73 1010.1
20260505110701 61 160 0.0 0.0 0.00 0.00 0.00 74 1010.1
20260505110602 61 160 0.0 0.0 0.00 0.00 0.00 74 1010.1
20260505110501 61 65 5.0 0.0 0.00 0.00 0.00 77 1010.1
20260505110402 61 65 5.0 0.0 0.00 0.00 0.00 77 1010.1
20260505110302 61 65 5.0 0.0 0.00 0.00 0.00 77 1010.1
20260505110202 61 65 5.0 0.0 0.00 0.00 0.00 77 1010.1